|
NORAD ID: 26365 Int'l Code: 2000-026A
Perigee: 521.0 km
Apogee: 539.7 km
Inclination: 86.3 °
Period: 95.1 minutes
Semi major axis: 6901 km
Launch date: May 16, 2000
Source: Commonwealth of Independent States (former USSR) (CIS)
Two Line Element Set (TLE):
1 26365U 00026A 13144.98648571 .00001449 00000-0 77107-4 0 1458
2 26365 086.3481 282.5676 0013523 118.7335 019.7826 15.14260374718385
Source:
NASA's NSSDC Master Catalog entry for SIMSAT 1
|